IZ1TJT Weather Reports


Display with metric or nautical units.
time (UTC)temp
F
wind
direction
speed
MPH
gust
MPH
rain 1hr
in
rain 24hr
in
rain mn
in
humidity
%
barometer
mb
20260506204509 62 159 3.0 11.0 0.00 1.73 1.73 84 1013.1
20260506203010 62 101 6.0 11.0 0.00 1.73 1.73 83 1012.9
20260506201511 62 153 4.0 13.0 0.00 1.73 1.73 84 1012.9
20260506200007 62 155 3.0 14.0 0.00 1.73 1.73 84 1012.7
20260506194507 62 98 4.0 8.0 0.00 1.73 1.73 84 1012.4
20260506193009 62 146 5.0 11.0 0.00 1.73 1.73 84 1012.2
20260506191510 62 127 5.0 13.0 0.00 1.73 1.73 84 1012.1
20260506190005 62 199 5.0 11.0 0.00 1.73 1.73 84 1012.0
20260506184505 62 112 3.0 10.0 0.00 1.73 1.73 83 1011.7
20260506183004 62 117 1.0 9.0 0.00 1.73 1.73 85 1011.6
20260506181501 62 138 6.0 14.0 0.00 1.73 1.73 85 1011.3
20260506180002 62 122 5.0 13.0 0.00 1.73 1.73 87 1011.2
20260506174502 62 122 3.0 10.0 0.00 1.73 1.73 87 1011.1
20260506173110 62 115 7.0 14.0 0.00 1.73 1.73 86 1011.0
20260506171600 62 105 5.0 14.0 0.00 1.73 1.73 87 1011.0
20260506171501 62 98 4.0 14.0 0.00 1.73 1.73 87 1011.0
20260506170109 62 10 5.0 13.0 0.00 1.73 1.73 86 1010.9
20260506164625 62 110 7.0 15.0 0.00 1.73 1.73 85 1011.0
20260506163108 63 120 8.0 14.0 0.00 1.73 1.73 83 1011.0
20260506161557 64 157 3.0 13.0 0.00 1.73 1.73 83 1010.9
20260506160113 64 148 7.0 16.0 0.00 1.73 1.73 81 1010.9
20260506154558 63 140 5.0 14.0 0.00 1.73 1.73 84 1010.8
20260506153055 64 176 5.0 13.0 0.00 1.73 1.73 84 1010.7
20260506151556 63 150 7.0 12.0 0.00 1.73 1.73 85 1010.8
20260506144553 65 233 3.0 10.0 0.00 1.73 1.73 82 1010.8
20260506143053 66 177 3.0 11.0 0.00 1.73 1.73 79 1010.7
20260506141551 66 193 7.0 13.0 0.00 1.73 1.73 78 1010.7
20260506140050 67 184 4.0 9.0 0.00 1.73 1.73 79 1010.8
20260506134551 66 283 5.0 14.0 0.00 1.73 1.73 80 1010.9
20260506133104 66 117 0.0 7.0 0.00 1.73 1.73 83 1011.0
20260506131555 66 287 2.0 8.0 0.00 1.73 1.73 80 1011.0
20260506130045 66 276 3.0 11.0 0.00 1.73 1.73 83 1010.9
20260506124544 65 293 4.0 10.0 0.00 1.73 1.73 83 1011.0
20260506123043 65 217 4.0 10.0 0.00 1.73 1.73 83 1010.8
20260506121548 65 266 5.0 12.0 0.00 1.73 1.73 85 1010.7
20260506120056 64 277 4.0 12.0 0.00 1.73 1.73 87 1010.6
20260506114540 64 276 4.0 11.0 0.00 1.73 1.73 88 1010.5
20260506113039 64 246 3.0 11.0 0.00 1.73 1.73 89 1010.5
20260506111545 64 272 4.0 10.0 0.00 1.73 1.73 89 1010.5
20260506110038 64 267 2.0 8.0 0.00 1.73 1.73 90 1010.5
20260506104547 63 121 1.0 9.0 0.00 1.73 1.73 90 1010.5
20260506103044 64 72 2.0 9.0 0.00 1.73 1.73 89 1010.6
20260506101535 64 108 2.0 6.0 0.00 1.73 1.73 87 1010.5
20260506100035 65 129 3.0 6.0 0.00 1.80 1.73 84 1010.5
20260506094534 64 249 0.0 8.0 0.00 1.80 1.73 85 1010.4
20260506093033 65 107 1.0 6.0 0.00 1.80 1.73 82 1010.4
20260506091531 64 133 2.0 7.0 0.00 1.80 1.73 83 1010.2
20260506090030 64 289 2.0 7.0 0.00 1.80 1.73 82 1010.0
20260506084606 64 129 0.0 6.0 0.00 1.80 1.73 87 1009.9
20260506083026 63 110 0.0 1.0 0.00 1.80 1.73 92 1009.8
20260506081534 62 110 0.0 4.0 0.00 1.80 1.73 93 1009.7
20260506073021 59 72 0.0 0.0 0.15 1.80 1.73 97 1009.7
20260506071519 58 72 0.0 0.0 0.19 1.80 1.73 98 1009.6
20260506061515 60 72 5.0 8.0 0.00 1.62 1.54 93 1009.0
20260506044609 57 42 0.0 3.0 0.00 2.16 1.54 93 1009.2
20260506043008 57 11 0.0 4.0 0.00 2.16 1.54 93 1009.3
20260506041506 57 342 1.0 4.0 0.00 2.16 1.54 91 1009.7
20260506040007 58 268 0.0 1.0 0.00 2.65 1.54 90 1010.2
20260506034506 58 287 3.0 7.0 0.00 2.65 1.54 87 1010.0
20260506033007 59 27 6.0 16.0 0.01 2.65 1.54 83 1009.4
20260506031504 59 331 13.0 24.0 0.01 2.65 1.54 83 1009.3
20260506030002 59 53 11.0 22.0 0.03 2.80 1.54 85 1009.5
20260506024605 58 354 8.0 20.0 0.10 2.80 1.54 92 1009.8
20260506023107 57 68 9.0 16.0 0.23 2.80 1.54 92 1010.2
20260506021612 56 52 0.0 4.0 0.35 2.80 1.54 96 1010.7
20260506020052 56 358 2.0 6.0 0.45 2.87 1.50 98 1011.0
20260506014550 56 342 2.0 4.0 0.69 2.81 1.44 98 1011.9
20260506013059 56 314 1.0 3.0 1.25 2.67 1.30 97 1012.2
20260506011606 56 310 4.0 6.0 1.19 2.56 1.19 97 1011.8
20260506010050 57 39 2.0 6.0 1.05 2.46 1.05 96 1011.7
20260506004540 58 39 6.0 14.0 0.72 2.14 0.72 96 1011.8
20260506003038 61 66 3.0 7.0 0.05 1.46 0.05 92 1011.8
20260506001535 61 7 0.0 3.0 0.00 1.42 0.00 92 1011.4
20260506000034 61 36 1.0 5.0 0.00 1.43 0.00 92 1011.5
20260505234531 60 329 0.0 2.0 0.00 1.43 0.00 93 1011.9
20260505233028 60 321 0.0 2.0 0.00 1.43 0.00 93 1012.5
20260505231541 60 333 0.0 2.0 0.00 1.43 0.00 93 1012.5
20260505230026 60 309 0.0 4.0 0.00 1.43 0.00 93 1012.8
20260505224523 61 284 1.0 4.0 0.00 1.43 0.00 92 1012.9
20260505223020 61 267 1.0 3.0 0.00 1.43 0.00 93 1013.1
20260505221519 61 283 0.0 2.0 0.00 1.43 0.00 93 1013.4
20260505220019 61 285 0.0 2.0 0.00 1.43 1.43 93 1013.2
20260505214517 61 285 1.0 3.0 0.00 1.43 1.43 93 1013.4
20260505213022 61 293 0.0 2.0 0.00 1.43 1.43 93 1013.5
20260505211515 61 278 0.0 0.0 0.00 1.43 1.43 92 1013.6
20260505210015 61 278 1.0 4.0 0.00 1.43 1.43 91 1013.7